Wind_Speed
54 57 59 63 66 70 74 79 85 91 96 101 104 103 101 98 95 92 89 88 87 89 93 101 112 120 122 120 115 109 105 102 99 95 91 87 83 79 76 73 68 64 60
54 57 60 64 67 71 76 82 88 94 98 99 98 95 92 90 87 86 86 85 86 87 88 91 98 108 118 124 123 118 113 109 105 101 97 93 89 85 81 77 74 69 64
55 58 61 65 69 74 79 85 91 94 95 94 91 88 84 83 82 83 83 83 83 84 87 90 94 99 107 116 123 124 120 115 111 107 103 99 95 90 86 82 78 74 69
56 59 63 67 71 76 82 88 92 93 91 88 85 81 78 78 79 79 77 76 74 75 79 85 92 96 100 107 115 121 123 121 117 113 109 105 100 96 91 87 83 79 74
58 61 64 68 73 79 85 89 91 90 87 84 80 76 75 75 75 74 72 69 67 66 67 73 82 92 98 102 107 114 120 122 121 118 114 110 106 101 97 92 88 83 79
60 62 66 70 75 81 86 89 88 86 83 80 77 74 73 72 71 68 66 64 62 61 61 64 70 80 91 100 104 108 115 120 123 122 119 115 111 107 102 97 93 88 84
62 64 68 72 78 83 86 87 86 83 79 78 76 73 70 68 65 63 61 59 58 57 57 59 62 71 81 93 101 106 111 117 122 124 122 119 115 111 107 103 98 93 88
64 66 70 74 79 84 86 85 83 80 77 76 76 75 70 62 57 56 55 54 54 53 52 52 56 63 72 83 95 103 108 114 120 124 125 122 119 115 111 107 102 97 92
67 69 72 76 81 84 84 83 80 78 75 73 74 75 72 65 57 49 47 48 48 47 46 44 46 53 65 76 87 98 106 112 118 123 126 125 123 119 115 111 107 102 96
69 70 74 77 81 83 83 80 78 76 75 73 71 71 69 66 61 51 42 41 42 42 40 39 37 43 55 70 81 92 103 110 117 122 126 127 126 123 119 115 111 106 100
71 72 75 78 81 82 80 78 75 74 74 73 71 68 64 61 58 55 46 37 34 36 36 35 33 33 43 60 76 87 98 108 116 122 126 128 128 126 122 118 114 109 104
73 74 76 78 80 80 78 75 73 72 72 72 70 67 63 58 54 51 46 38 31 29 31 31 30 28 33 48 66 82 94 105 114 121 127 129 130 129 125 122 117 113 108
74 75 76 78 79 78 76 74 71 71 70 70 68 65 61 57 53 50 45 38 31 27 27 28 28 27 29 38 55 73 89 101 110 119 126 130 131 131 128 124 120 116 111
74 75 76 78 78 77 75 72 70 69 69 69 66 63 59 54 51 48 44 39 32 25 24 25 27 27 27 33 45 63 81 95 106 115 123 129 132 132 130 126 122 118 114
75 75 76 77 77 75 73 70 69 68 68 67 64 60 57 52 48 46 43 40 35 27 20 23 25 26 27 30 40 54 72 87 99 109 118 126 131 133 131 128 124 120 115
75 76 76 76 76 74 72 69 67 66 66 65 62 58 54 51 47 44 41 38 35 30 22 20 23 24 26 28 35 46 62 78 91 102 111 120 127 131 132 130 126 121 117
75 75 75 75 75 73 71 68 66 65 64 63 60 56 52 48 45 43 40 36 34 31 25 19 21 22 23 25 31 40 54 68 82 94 103 113 122 128 131 131 128 123 119
75 75 75 75 74 72 70 67 65 64 63 61 58 54 50 46 44 41 38 35 33 31 27 21 20 20 19 21 27 36 47 60 72 84 95 104 115 124 129 130 129 125 121
75 75 75 74 73 71 69 66 64 62 61 60 56 52 48 45 42 40 37 35 32 30 27 23 19 18 17 17 22 31 41 53 63 75 86 96 105 116 125 129 129 127 123
74 74 74 73 72 70 68 65 63 61 60 58 55 51 47 43 41 38 36 33 31 29 26 23 19 17 15 15 19 27 37 47 57 66 76 87 96 107 118 126 128 126 123
73 73 73 72 71 69 67 64 61 60 59 57 54 50 46 42 40 37 35 33 30 28 25 22 19 17 14 13 18 25 34 43 51 59 68 78 87 98 110 120 126 127 125
72 73 72 71 70 68 65 63 61 60 58 56 53 49 45 41 38 36 35 33 31 28 25 22 19 16 13 12 16 24 32 40 46 54 61 69 79 88 100 113 121 125 125
71 71 71 70 69 67 64 61 59 58 57 55 52 48 44 40 36 34 33 32 31 28 25 22 18 15 12 11 16 24 31 38 44 50 55 61 70 79 91 104 115 122 124
70 70 69 68 67 66 63 60 58 57 56 54 52 48 44 40 36 33 31 30 29 27 25 22 18 13 11 11 15 23 31 36 41 46 50 54 63 72 83 95 107 117 123
68 68 68 66 65 64 62 59 57 55 54 53 51 48 45 40 36 32 30 29 28 26 25 22 18 13 10 10 15 22 30 36 39 43 46 50 56 65 76 87 99 111 118
66 66 66 65 63 62 61 59 57 54 53 51 50 48 45 41 36 32 29 27 26 25 24 22 17 12 9 9 13 21 29 35 38 40 43 47 52 59 68 80 91 104 113
Wind_Direction
311 310 310 309 308 308 308 308 308 307 306 304 302 299 295 292 288 284 280 275 270 265 259 253 248 243 239 235 232 230 229 227 226 225 224 223 222 221 220 220 220 220 219
313 312 311 310 310 310 310 310 310 309 308 306 303 300 297 294 291 287 282 277 271 265 259 253 248 243 239 235 231 228 227 226 224 223 222 221 221 220 219 218 218 218 218
315 314 313 312 312 312 313 313 313 312 311 308 306 303 300 297 293 290 285 280 273 266 260 254 248 243 239 235 231 228 225 224 223 222 221 220 219 218 218 217 217 217 217
318 316 315 315 315 315 316 316 316 315 313 311 308 305 303 300 297 293 289 284 278 270 262 254 248 243 239 234 231 228 224 222 221 220 219 219 218 217 216 216 215 215 215
321 319 318 317 318 318 319 320 320 318 316 314 311 309 306 304 301 297 293 287 281 274 266 256 249 243 238 234 230 227 224 221 219 219 218 217 216 216 215 215 214 214 214
324 321 320 320 321 322 323 323 323 321 318 316 314 312 311 308 305 300 296 291 285 277 269 260 251 243 237 233 229 226 222 220 218 217 217 216 215 214 214 213 213 213 212
326 324 323 323 324 326 326 326 325 323 321 319 317 316 315 313 308 304 299 294 288 282 274 264 254 244 236 231 227 224 221 218 217 215 215 214 214 213 213 212 212 212 211
329 327 326 327 328 329 329 329 327 326 324 322 320 320 319 317 312 307 302 298 293 288 280 269 256 245 236 230 225 222 219 217 215 214 213 213 213 212 212 211 211 211 211
331 330 329 330 331 332 332 331 329 328 327 325 324 323 323 322 319 314 307 301 297 293 286 276 262 246 235 228 223 220 217 215 213 213 212 211 211 211 211 210 210 210 210
333 332 332 333 334 334 334 333 331 329 329 329 328 326 325 324 323 321 316 307 301 296 290 282 269 251 236 226 221 217 215 213 212 211 211 210 210 210 210 210 209 209 209
335 334 334 335 336 336 336 334 332 331 331 331 330 330 328 327 324 324 324 316 306 298 291 284 275 259 240 226 219 215 213 211 210 210 209 209 209 209 209 209 208 208 208
336 336 336 337 338 338 337 335 334 334 333 333 333 332 331 329 328 326 326 323 316 303 292 285 278 265 246 229 219 214 211 210 209 209 208 208 208 208 208 208 208 207 207
337 337 338 338 339 339 338 337 336 336 335 335 334 334 333 332 331 330 329 328 324 314 297 285 278 267 250 232 220 214 210 209 209 208 207 207 207 207 207 207 207 206 206
338 338 339 340 340 340 340 339 338 337 337 337 336 336 335 334 333 332 332 331 330 322 305 288 279 270 255 238 223 215 211 209 208 208 207 207 206 206 206 206 206 206 206
339 339 340 341 342 342 341 340 339 339 339 338 338 337 337 337 336 334 333 331 331 330 315 294 283 273 259 243 228 219 213 209 209 208 208 207 206 205 205 205 206 205 205
340 340 341 342 343 343 342 342 341 341 341 340 339 339 339 339 338 336 334 332 332 332 327 302 290 279 264 247 232 222 215 211 209 208 208 208 206 205 205 205 205 205 205
340 341 341 342 344 344 343 343 342 342 342 342 341 340 340 341 340 338 336 334 333 332 332 317 300 288 272 251 234 223 216 212 210 209 209 209 207 205 205 204 204 204 204
340 341 342 343 344 345 344 344 344 343 344 344 343 342 342 342 341 340 339 337 335 333 332 327 309 296 279 256 235 223 216 211 210 209 209 209 208 206 205 204 203 203 203
340 341 342 343 345 345 345 345 345 344 345 345 344 344 344 344 343 342 341 339 337 334 332 330 318 303 285 259 234 221 214 210 209 209 209 210 209 208 206 204 203 203 203
340 341 342 343 345 346 346 346 345 345 346 346 346 346 345 345 345 344 343 341 339 336 333 330 323 309 289 260 231 216 210 207 207 208 209 209 210 209 207 205 203 202 202
339 340 342 343 345 347 346 346 346 346 347 348 347 347 347 346 347 346 346 345 342 339 335 330 324 313 292 257 226 211 205 204 204 206 207 208 210 209 208 206 203 202 202
338 340 341 343 345 347 347 346 346 347 348 349 349 348 348 347 347 347 346 346 345 343 339 332 325 314 293 255 223 208 201 200 201 204 206 207 209 209 209 207 205 202 202
337 339 341 343 345 347 347 347 347 348 349 349 349 349 348 347 346 346 346 346 344 343 340 335 327 314 293 254 220 205 199 198 199 201 203 206 208 209 209 208 206 203 202
336 338 340 342 344 346 347 347 348 348 349 349 350 350 349 348 346 346 345 345 345 343 340 336 329 315 291 253 220 205 198 197 198 199 201 203 207 208 209 208 207 204 202
334 336 339 342 344 346 347 348 348 349 349 350 350 350 350 349 347 346 346 345 344 343 341 338 332 319 288 250 219 204 198 196 196 197 198 201 205 207 208 208 207 205 203
332 335 338 341 344 346 347 348 349 349 350 350 351 351 351 350 348 346 345 345 344 343 342 340 335 322 292 248 217 204 198 195 195 195 196 199 203 206 207 207 207 205 203
Height
5753 5746 5739 5731 5723 5714 5704 5693 5680 5665 5649 5631 5612 5594 5577 5562 5549 5540 5534 5531 5529 5530 5534 5541 5553 5568 5586 5605 5624 5641 5657 5671 5685 5699 5712 5724 5735 5746 5757 5767 5776 5785 5793
5743 5735 5727 5719 5709 5699 5688 5675 5659 5642 5623 5603 5584 5564 5547 5532 5520 5510 5503 5499 5497 5497 5500 5504 5511 5523 5541 5561 5583 5604 5623 5641 5658 5673 5688 5702 5715 5727 5739 5750 5761 5771 5781
5733 5724 5715 5705 5695 5683 5670 5654 5636 5617 5596 5575 5556 5538 5521 5506 5493 5481 5472 5466 5463 5463 5465 5470 5476 5486 5499 5518 5540 5564 5587 5608 5627 5645 5662 5678 5693 5708 5721 5733 5745 5757 5767
5721 5712 5702 5691 5679 5666 5650 5633 5613 5592 5570 5550 5532 5515 5499 5483 5468 5455 5444 5436 5431 5429 5430 5434 5442 5451 5464 5480 5500 5524 5550 5574 5596 5616 5635 5653 5670 5686 5701 5715 5728 5741 5753
5709 5699 5688 5676 5662 5647 5629 5610 5588 5566 5546 5527 5509 5494 5478 5461 5445 5431 5419 5410 5405 5401 5400 5402 5407 5417 5430 5446 5465 5487 5512 5538 5563 5586 5607 5626 5645 5663 5680 5695 5710 5724 5737
5696 5685 5673 5660 5645 5628 5608 5587 5565 5543 5522 5504 5487 5473 5457 5440 5423 5409 5397 5388 5381 5376 5374 5374 5378 5385 5397 5414 5432 5453 5477 5503 5529 5554 5577 5599 5620 5639 5658 5675 5691 5706 5721
5683 5671 5658 5643 5627 5609 5588 5566 5545 5524 5503 5483 5467 5453 5440 5422 5404 5389 5377 5367 5360 5354 5350 5349 5352 5357 5367 5382 5401 5423 5446 5470 5496 5522 5547 5571 5594 5615 5635 5653 5671 5687 5703
5669 5656 5642 5626 5609 5590 5568 5547 5525 5505 5486 5465 5445 5429 5418 5408 5392 5375 5360 5349 5341 5333 5328 5326 5327 5332 5341 5354 5372 5393 5415 5440 5465 5491 5518 5543 5567 5590 5612 5632 5651 5669 5686
5656 5641 5626 5610 5591 5572 5550 5529 5508 5488 5470 5452 5429 5409 5392 5382 5374 5365 5349 5336 5325 5317 5310 5307 5307 5309 5317 5329 5345 5365 5388 5413 5438 5464 5490 5516 5541 5565 5588 5610 5630 5649 5668
5642 5627 5611 5594 5575 5555 5533 5512 5492 5472 5454 5437 5419 5398 5378 5361 5350 5345 5339 5325 5313 5304 5297 5292 5291 5291 5296 5306 5321 5339 5361 5386 5411 5437 5463 5489 5515 5541 5565 5587 5609 5630 5649
5628 5613 5596 5579 5560 5539 5519 5498 5478 5459 5440 5422 5405 5389 5371 5354 5337 5326 5321 5315 5305 5295 5286 5282 5279 5278 5280 5287 5300 5317 5337 5360 5384 5410 5435 5462 5489 5516 5540 5565 5588 5610 5631
5616 5600 5583 5565 5546 5526 5506 5486 5466 5448 5429 5411 5393 5376 5360 5345 5332 5318 5308 5302 5295 5288 5279 5273 5270 5268 5268 5272 5282 5297 5315 5336 5358 5382 5408 5435 5463 5491 5517 5542 5567 5590 5612
5604 5587 5570 5552 5533 5514 5494 5475 5456 5438 5419 5402 5384 5367 5351 5336 5323 5311 5300 5293 5286 5280 5272 5267 5263 5261 5260 5262 5268 5280 5296 5315 5336 5358 5384 5411 5439 5467 5495 5522 5547 5571 5594
5594 5577 5560 5541 5523 5503 5484 5465 5446 5429 5411 5393 5376 5359 5344 5329 5316 5304 5293 5285 5279 5274 5267 5261 5257 5254 5254 5255 5259 5267 5281 5298 5318 5339 5363 5389 5417 5446 5475 5503 5529 5553 5576
5584 5567 5550 5532 5513 5494 5475 5456 5438 5421 5403 5386 5369 5353 5338 5324 5311 5299 5289 5279 5273 5268 5263 5256 5252 5249 5247 5248 5252 5258 5270 5285 5303 5324 5346 5370 5397 5425 5454 5483 5510 5536 5561
5574 5557 5540 5522 5504 5485 5467 5449 5431 5414 5397 5380 5364 5349 5334 5320 5307 5296 5285 5276 5268 5262 5258 5253 5247 5244 5242 5243 5246 5252 5261 5275 5291 5310 5331 5354 5379 5406 5435 5463 5492 5520 5546
5565 5548 5531 5514 5496 5478 5460 5442 5425 5408 5392 5375 5359 5344 5330 5316 5304 5293 5283 5274 5265 5258 5253 5249 5243 5240 5237 5238 5241 5246 5255 5267 5283 5300 5319 5339 5363 5389 5417 5447 5476 5503 5530
5556 5540 5523 5506 5489 5471 5453 5436 5419 5403 5387 5371 5356 5341 5327 5314 5302 5291 5280 5271 5263 5256 5250 5245 5241 5236 5234 5234 5236 5241 5249 5261 5275 5291 5308 5328 5349 5374 5401 5430 5459 5487 5514
5548 5532 5516 5499 5482 5464 5447 5430 5414 5398 5382 5367 5352 5338 5324 5312 5300 5289 5279 5270 5261 5254 5248 5243 5239 5234 5232 5231 5233 5238 5245 5256 5269 5284 5300 5318 5338 5361 5386 5413 5442 5470 5499
5540 5524 5508 5491 5475 5458 5441 5425 5409 5394 5379 5363 5349 5335 5321 5310 5298 5288 5278 5269 5261 5253 5247 5241 5237 5233 5230 5229 5231 5235 5243 5253 5265 5278 5293 5310 5329 5349 5373 5399 5430 5459 5486
5533 5518 5502 5485 5469 5453 5436 5421 5406 5391 5375 5360 5345 5332 5319 5307 5297 5286 5277 5268 5260 5253 5246 5241 5236 5232 5230 5228 5230 5233 5241 5250 5261 5274 5288 5304 5322 5342 5363 5388 5414 5441 5469
5526 5511 5495 5479 5463 5447 5432 5416 5400 5386 5371 5357 5343 5330 5318 5306 5296 5286 5276 5267 5259 5252 5245 5240 5235 5232 5229 5228 5229 5233 5239 5248 5259 5271 5284 5299 5315 5334 5354 5377 5402 5429 5456
5519 5504 5489 5474 5458 5443 5427 5412 5396 5381 5367 5354 5341 5328 5316 5305 5295 5285 5276 5268 5260 5252 5245 5240 5235 5231 5229 5228 5229 5233 5239 5247 5257 5268 5281 5296 5311 5328 5345 5367 5390 5416 5442
5512 5498 5483 5468 5453 5439 5424 5409 5394 5379 5365 5352 5339 5327 5315 5304 5293 5284 5276 5267 5260 5252 5245 5240 5235 5231 5229 5228 5229 5232 5238 5246 5255 5266 5278 5292 5305 5321 5337 5357 5379 5404 5430
5505 5492 5478 5463 5449 5434 5420 5405 5391 5377 5363 5350 5337 5325 5314 5303 5292 5283 5275 5267 5259 5252 5245 5239 5234 5230 5228 5227 5228 5232 5237 5245 5254 5264 5276 5288 5301 5315 5330 5350 5371 5394 5419
5498 5485 5472 5458 5445 5431 5416 5402 5389 5376 5363 5349 5336 5324 5312 5301 5291 5282 5274 5266 5259 5252 5245 5239 5234 5230 5227 5227 5228 5231 5236 5244 5252 5262 5273 5284 5295 5308 5325 5342 5362 5384 5409